www.pogodaiklimat.ru

Погода и климат >> Архив погоды >> Канада >> Spence bay


ПОГОДА в Spence bay

  • Прогноз погоды в Spence bay
  • Монитор погоды в Spence bay
  • Климат города

АРХИВ ПОГОДЫ в Spence bay

Время (UTC), дата Ветер
(напр.,м/с)
 
Видим.   Явления Облачность Т
(С)
Тd
(С)
f
(%)
Тe
(С)
Тes
(С)
Комфортность P
(гПа)
Po
(гПа)
Тmin
(С)
Tmax
(С)
R
(мм)
R24
(мм)
S
(см)
00 18.05 З 6 12 км позёмок {снег} 8/6 <50 м
[Sc]
-9.5 -13.0 76 -18 -17 1015.3 1011.6 -14.8 -7.8 0.0 30
03 18.05 З 4 12 км 8/8 200 м
[]
-9.9 -12.7 80 -17 -17 1014.8 1011.1
06 18.05 З 5 12 км слабый снег 6/6 200 м
[Sc Ac trans]
-11.3 -14.2 79 -19 -19 1015.2 1011.5 -14.8 -7.8 0.0 182
09 18.05 З 5 12 км 3/3 300 м
[]
-12.1 -15.2 78 -20 -20 1015.4 1011.7
12 18.05 СЗ 5 19 км слабый снег 8/8 300 м
[Sc]
-11.0 -14.1 78 -19 -18 1015.8 1012.1 -12.4 -7.8 0.0 30
15 18.05 З 4 9000 м 5/5 300 м
[]
-9.0 -12.3 77 -16 -14 1015.1 1011.4
18 18.05 З 8 9000 м слабый снег 5/4 300 м
[Sc]
-8.2 -11.5 77 -17 -16 1014.1 1010.4 0.2 30
21 18.05 З 7 11 км 6/6 300 м
[]
-8.2 -11.7 76 -17 -16 1013.5 1009.8
00 19.05 З 8 11 км слабый снег 6/5 200 м
[Sc Ac trans]
-9.1 -12.7 75 -18 -18 1012.7 1009.0 0.2 30
03 19.05 СЗ 3 11 км 9/9 200 м
[]
-10.6 -13.6 79 -17 -17 1012.3 1008.6
06 19.05 З 5 19 км слабый снег 9/9 600 м
[Sc Ac trans]
-10.6 -13.2 81 -19 -19 1011.0 1007.3 0.0 91
09 19.05 З 7 16 км 9/9 600 м
[]
-10.5 -12.9 82 -20 -20 1010.7 1007.0
12 19.05 СЗ 7 24 км слабый снег 10/10 1000 м
[Sc]
-10.0 -12.9 79 -19 -19 1010.0 1006.3 0.0 30
15 19.05 СЗ 9 24 км 9/9 1000 м
[]
-8.9 -12.0 78 -19 -19 1009.6 1005.9
18 19.05 СЗ 9 24 км {снег} 9/8 600 м
[Sc]
-8.6 -11.6 79 -18 -18 1009.6 1005.9 -8.6 0.0 30
21 19.05 СЗ 9 22 км 10/10 300 м
[]
-7.4 -10.3 80 -17 -17 1009.9 1006.2
00 20.05 СЗ 8 22 км слабый снег 10/10 300 м
[Sc]
-6.9 -9.5 82 -16 -16 1009.3 1005.6 -10.7 -6.9 0.0 30
03 20.05 СЗ 8 8000 м 10/10 300 м
[]
-7.6 -9.9 84 -17 -17 1008.2 1004.6
06 20.05 СЗ 9 8000 м слабый снег 10/10 300 м
[Sc]
-8.3 -10.5 84 -18 -18 1008.0 1004.4 -10.7 -6.8 0.4 151
09 20.05 СЗ 10 11 км 10/10 600 м
[]
-9.1 -11.2 85 -20 -20 1007.9 1004.3
12 20.05 СЗ 8 30 км слабый снег 10/10 600 м
[Sc]
-8.8 -11.4 81 -18 -18 1007.7 1004.1 -9.1 -6.8 0.4 30
15 20.05 СЗ 8 19 км 10/10 1000 м
[]
-7.7 -10.8 78 -17 -17 1007.9 1004.3
18 20.05 СЗ 8 8000 м слабый снег 10/10 1000 м
[Sc]
-6.4 -9.2 80 -15 -15 1008.4 1004.8 -9.1 -6.3 30
21 20.05 С 7 16 км 10/10 1000 м
[]
-5.3 -8.4 79 -14 -14 1009.8 1006.2
00 21.05 С 7 24 км слабый снег 10/10 1000 м
[Sc]
-5.4 -8.4 79 -14 -14 1010.7 1007.1 -9.1 -5.3 30
03 21.05 СЗ 4 24 км 10/10 1000 м
[]
-6.5 -8.7 84 -13 -13 1012.0 1008.3
06 21.05 СВ 2 16 км слабый снег 9/9 1000 м
[Sc]
-7.6 -9.7 85 -11 -11 1013.2 1009.5 -9.1 -5.3 0.0 101
09 21.05 С 2 16 км 9/9 1000 м
[]
-8.2 -9.9 88 -12 -12 1014.9 1011.2
12 21.05 штиль 0 24 км снег 9/9 1000 м
[Sc]
-7.7 -9.9 84 -8 -8 1015.9 1012.2 -8.3 -5.3 0.0 30
15 21.05 Ю 3 24 км 9/9 1000 м
[]
-7.5 -9.6 85 -13 -12 1016.9 1013.2
18 21.05 Ю 3 24 км {снег} 9/9 1000 м
[Sc]
-6.0 -8.2 84 -12 -11 1017.6 1013.9 -8.3 -6.0 30
21 21.05 СЗ 3 24 км 10/10 300 м
[]
-4.0 -7.9 74 -9 -9 1018.2 1014.5
00 22.05 СЗ 5 24 км слабый снег 10/10 300 м
[Sc]
-4.5 -7.5 80 -12 -12 1018.5 1014.8 -8.3 -3.7 30
03 22.05 СЗ 5 24 км 10/10 1000 м
[]
-5.9 -8.1 84 -13 -13 1018.7 1015.0
06 22.05 СЗ 6 16 км снег 10/10 1000 м
[Sc]
-6.7 -8.6 86 -15 -15 1019.1 1015.4 -8.3 -3.7 0.2 30
09 22.05 СЗ 5 24 км 10/10 600 м
[]
-7.0 -9.8 80 -15 -15 1019.9 1016.2
12 22.05 СЗ 4 24 км снег 10/10 600 м
[Sc]
-6.7 -9.3 82 -13 -13 1020.0 1016.3 -7.2 -3.7 0.0 30
15 22.05 З 4 19 км 10/10 600 м
[]
-5.3 -8.9 76 -11 -11 1020.1 1016.4
18 22.05 З 5 24 км {снег} 8/8 300 м
[Cu Sc]
-4.3 -7.7 77 -11 -10 1019.7 1016.0 -7.2 -4.3 29
21 22.05 З 4 24 км ясно -4.4 -7.8 77 -11 -6 1019.4 1015.7
00 23.05 ЮЗ 3 24 км ясно -5.9 -9.8 74 -11 -9 1018.7 1015.0 -7.2 -4.1 29
03 23.05 С 1 24 км ясно -9.7 -12.1 83 -10 -10 1018.0 1014.3
06 23.05 Ю 2 24 км 1/1 600 м
[Sc Ac trans]
-13.2 -15.2 85 -17 -17 1017.2 1013.5 -13.2 -4.1 29
09 23.05 ЮВ 1 2800 м 3/3 100 м
[]
-15.2 -17.4 83 -18 -18 1016.4 1012.7
12 23.05 В 2 24 км слабый снег 9/8 200 м
[Sc]
-10.8 -12.6 87 -14 -14 1015.4 1011.7 -15.6 -4.1 0.0 29
15 23.05 ЮЗ 2 24 км 9/9 300 м
[]
-8.9 -10.5 88 -13 -12 1014.1 1010.4
18 23.05 24 км {снег} н/о -6.9 -10.8 74 -14 -14 1012.9 1009.2 -15.6 -6.8 29
21 23.05 Ю 3 19 км 10/10 300 м
[]
-6.9 -10.8 74 -12 -12 1012.3 1008.6
00 24.05 С 1 24 км слабый снег 10/10 600 м
[Sc]
-6.5 -10.7 72 -7 -7 1011.9 1008.2 -15.6 -6.5 29
03 24.05 С 2 24 км 10/10 600 м
[]
-7.6 -11.2 75 -12 -12 1011.7 1008.0
06 24.05 С 2 22 км слабый снег 10/10 300 м
[Sc]
-8.3 -10.8 82 -12 -12 1012.1 1008.4 -15.6 -6.4 0.2 29
09 24.05 С 3 22 км 10/10 600 м
[]
-8.7 -11.3 81 -15 -15 1013.1 1009.4
12 24.05 С 6 24 км слабый снег 10/10 300 м
[Sc]
-8.9 -12.0 78 -17 -17 1014.4 1010.7 -8.9 -6.4 0.2 29
15 24.05 СЗ 5 24 км 9/9 300 м
[]
-9.5 -12.9 76 -17 -17 1015.9 1012.2
18 24.05 СЗ 4 24 км {снег} 6/4 300 м
[Cu Sc Ac trans]
-7.5 -11.4 74 -14 -10 1017.2 1013.5 -9.6 -7.4 29
21 24.05 З 2 24 км ясно -6.2 -10.6 71 -10 -3 1018.7 1015.0

 

Местоположение метеостанции Spence bay (Канада): широта 69.55 долгота -93.58 высота над уровнем моря 28 м.

В архиве по умолчанию представлена погода в Spence bay за последнюю неделю. Архивные данные за месяц целиком и за предыдущие месяцы, начиная с января 2011 года, Вы можете получить, выбрав интересующий диапазон дат из раскрывающегося списка и нажав кнопку "Ввод!".


*Определитесь, кто Вы:
робот инопланетянин человек

Внимание! Время в таблицах - всемирное. Для получения местного времени необходимо прибавить поправку, которая в Spence bay равна -6 ч.

Смотрите также архив погоды в соседних городах и на ближайших метеорологических станциях:

Погода в Shepherd Bay (Канада) (81 км)
Погода в Gjoa Haven Climate (Канада) (136 км)
Погода в Kugaaruk climate (Канада) (188 км)
Погода в Pelly Bay (Канада) (198 км)
Погода в Hat Island (Канада) (291 км)
Погода в Back River MAPS (Канада) (405 км)
Погода в Wager Bay (Канада) (444 км)
Погода в Cambridge Bay Gsn (Канада) (454 км)
Погода в Cambridge Bay Arpt (Канада) (454 км)
Погода в Arctic Bay (Канада) (490 км)

Пояснения к столбцам:

Ветер - указаны скорость ветра в м/с - средняя за 10 мин, порывы в срок и между сроками (в фигурных скобках) и направление, откуда дует ветер: С - северный, СВ - северо-восточный, В - восточный, ЮВ - юго-восточный, Ю - южный, ЮЗ - юго-западный, З - западный, СЗ - северо-западный.
Видимость - горизонтальная дальность видимости в метрах или километрах. При видимости от 1 до 10 км при отсутствии осадков обычно наблюдается дымка, при ухудшении видимости до 1 км и менее - туман. В сухую погоду видимость может ухудшаться дымом, пылью или мглою.
Явления - указаны атмосферные явления, наблюдавшиеся в срок или в последний час перед сроком; фигурными скобками обозначены явления, наблюдавшиеся между сроками (за 1-3 часа до срока); квадратными скобками обозначены град или гололедные отложения с указанием их диаметра в мм.
Облачность - указаны через наклонную черту общая и нижняя облачность в баллах и высота нижней границы облаков в метрах; квадратными скобками обозначены формы облаков: Ci - перистые, Cs - перисто-слоистые, Cc - перисто-кучевые, Ac - высококучевые, As - высокослоистые, Sc - слоисто-кучевые, Ns - слоисто-дождевые, Cu - кучевые, Cb - кучево-дождевые. Подробнее классификацию облаков см. в Атласе облаков (PDF).
T - Температура воздуха - температура, измеренная на высоте 2 м над землей.
Td - Температура точки росы - температура, при понижении до которой содержащийся в воздухе водяной пар достигнет насыщения.
f - Относительная влажность воздуха - влажноcть воздуха, измеренная на высоте 2 м над землей.
Te - Эффективная температура - температура, которую ощущает одетый по сезону человек в тени. Характеристика душности погоды. При расчете учитывается влияние влажности воздуха и скорости ветра на теплоощущения человека.
Tes - Эффективная температура на солнце - температура, которую ощущает человек, с поправкой на солнечный нагрев. Характеристика знойности погоды. Зависит от высоты солнца над горизонтом, облачности и скорости ветра. Ночью, в пасмурную погоду, а также при ветре 12 м/с и более поправка равна нулю.
P - Атмосферное давление - приведенное к уровню моря атмосферное давление.
Po - Атмосферное давление - измеренное на уровне метеостанции атмосферное давление.
Tmin - Минимальная температура - минимум температуры воздуха на высоте 2 м над землей.
Tmax - Максимальная температура - максимум температуры воздуха на высоте 2 м над землей.
R - Количество осадков - Количество выпавших осадков за период времени, мм. При наведении курсора мыши на число - период времени, за который выпало указанное количество осадков.
R24 - Количество осадков - Количество выпавших осадков за 24 часа, мм.
S - Снежный покров - Высота снежного покрова, см. При наведении курсора мыши на число - состояние снежного покрова и степень покрытия местности в баллах.